Weather reports worldwide

Advertisment
Machrihanish, United Kingdom (3111): temperature & dewpoint: 22.01.2020 08:00:00 - 28.01.2020 08:00:00 (GMT)Machrihanish, United Kingdom (3111): temperature -20cm & temperature -100cm: 22.01.2020 08:00:00 - 28.01.2020 08:00:00 (GMT)Machrihanish, United Kingdom (3111): wind speed & gusts: 22.01.2020 08:00:00 - 28.01.2020 08:00:00 (GMT)Machrihanish, United Kingdom (3111): wind direction: 22.01.2020 08:00:00 - 28.01.2020 08:00:00 (GMT)Machrihanish, United Kingdom (3111): reduced air pressure: 22.01.2020 08:00:00 - 28.01.2020 08:00:00 (GMT)Machrihanish, United Kingdom (3111): visibility: 22.01.2020 08:00:00 - 28.01.2020 08:00:00 (GMT)Machrihanish, United Kingdom (3111): precipitation: 22.01.2020 08:00:00 - 28.01.2020 08:00:00 (GMT)
Date & Time tt [°C] td [°C] tt -20cm [°C] tt -100cm [°C] ff [km/h] ff [kn] fx [km/h] fx [kn] dd ppp [hPa] vv [km] rr [mm]
28.01.2020 08:00:00 - - - - - - - - - - - -
28.01.2020 07:00:00 3,2 1,1 - - 31 17 50 27 SW 985,0 21 0,0
28.01.2020 06:00:00 3,1 0,9 - - 34 18 50 27 WSW 984,8 20 0,0
28.01.2020 05:00:00 3,5 1,4 - - 37 20 54 29 WSW 984,5 21 0,0
28.01.2020 04:00:00 3,5 0,7 - - 37 20 54 29 WSW 984,2 23 0,0
28.01.2020 03:00:00 4,5 1,3 - - 37 20 50 27 W 984,0 25 0,0
28.01.2020 02:00:00 3,7 1,7 - - 37 20 52 28 W 983,7 20 0,6
28.01.2020 01:00:00 2,2 1,6 - - 41 22 54 29 WNW 983,5 7 0,8
28.01.2020 00:00:00 3,3 2,1 - - 28 15 - - WNW 982,9 23 0,0
27.01.2020 23:00:00 3,6 2,6 - - 24 13 - - WSW 982,7 13 0,2
27.01.2020 22:00:00 3,0 2,2 - - 11 6 - - WSW 983,1 10 0,4
27.01.2020 21:00:00 2,8 0,7 - - 4 2 - - E 983,6 27 0,0
27.01.2020 20:00:00 3,7 0,9 - - 9 5 - - ESE 984,5 35 0,0
27.01.2020 19:00:00 3,6 1,4 - - 2 1 - - SSE 985,5 21 0,2
27.01.2020 18:00:00 4,0 1,2 - - 13 7 - - S 986,4 26 0,2
27.01.2020 17:00:00 4,0 0,4 - - 15 8 - - S 987,1 28 0,0
27.01.2020 16:00:00 4,4 1,0 - - 16 9 - - SSW 988,1 24 0,0
27.01.2020 15:00:00 4,7 0,4 - - 28 15 - - SSW 988,2 24 0,0
27.01.2020 14:00:00 4,7 0,8 - - 28 15 - - SSW 989,0 30 0,0
27.01.2020 13:00:00 4,8 0,4 - - 26 14 - - SSW 989,4 30 0,0
27.01.2020 12:00:00 4,5 0,2 - - 29 16 46 25 SSW 990,0 30 0,0
27.01.2020 11:00:00 4,0 0,3 - - 31 17 54 29 SSW 990,3 29 0,0
27.01.2020 10:00:00 3,2 0,2 - - 35 19 55 30 SSW 990,1 30 0,0
27.01.2020 09:00:00 2,8 -0,3 7,0 7,7 35 19 52 28 SSW 990,6 29 0,0
27.01.2020 08:00:00 3,1 0,0 - - 31 17 - - SSW 990,5 26 0,0
27.01.2020 07:00:00 2,9 -0,6 - - 37 20 57 31 SW 991,0 35 0,0
27.01.2020 06:00:00 3,4 -0,2 - - 41 22 59 32 SW 990,8 30 0,0
27.01.2020 05:00:00 3,5 0,2 - - 26 14 61 33 SW 990,8 35 0,0
27.01.2020 04:00:00 4,3 1,0 - - 41 22 61 33 SSW 990,7 35 0,0
27.01.2020 03:00:00 4,4 1,3 - - 37 20 61 33 SSW 991,3 30 0,0
27.01.2020 02:00:00 4,9 1,5 - - 31 17 48 26 SSW 991,8 30 0,0
27.01.2020 01:00:00 4,5 1,0 - - 35 19 52 28 SSW 992,9 30 0,0
27.01.2020 00:00:00 5,0 1,9 - - 37 20 55 30 S 993,7 25 0,2
26.01.2020 23:00:00 4,4 1,2 - - 39 21 70 38 S 994,4 9 0,2
26.01.2020 22:00:00 4,3 0,3 - - 28 15 - - SSE 995,2 27 0,0
26.01.2020 21:00:00 4,0 1,1 - - 18 10 - - S 997,1 20 0,0
26.01.2020 20:00:00 1,1 -0,4 - - 8 4 - - E 997,7 20 0,0
26.01.2020 19:00:00 1,9 0,3 - - 18 10 - - SSE 998,0 21 0,0
26.01.2020 18:00:00 2,3 0,7 - - 11 6 - - S 999,2 21 0,0
26.01.2020 17:00:00 4,2 0,1 - - 22 12 - - SW 999,4 22 0,0
26.01.2020 16:00:00 5,2 1,6 - - 24 13 - - SW 999,4 18 0,0
26.01.2020 15:00:00 6,1 2,5 - - 31 17 - - WSW 999,6 20 0,0
26.01.2020 14:00:00 5,9 2,7 - - 28 15 46 25 WSW 999,8 20 0,0
26.01.2020 13:00:00 5,7 3,6 - - 28 15 59 32 W 999,6 21 1,0
26.01.2020 12:00:00 6,7 2,9 - - 34 18 46 25 WSW 999,0 10 0,0
26.01.2020 11:00:00 7,1 4,0 - - 29 16 - - WSW 998,6 16 0,2
26.01.2020 10:00:00 7,2 5,0 - - 26 14 - - WSW 998,1 16 0,0
26.01.2020 09:00:00 7,5 5,4 7,2 7,7 28 15 54 29 W 997,8 18 0,6
26.01.2020 08:00:00 8,4 6,8 - - 26 14 52 28 SW 997,2 15 0,2
26.01.2020 07:00:00 8,5 7,5 - - 37 20 55 30 S 996,6 12 1,8
26.01.2020 06:00:00 8,1 7,5 - - 29 16 55 30 S 997,0 5 2,2
26.01.2020 05:00:00 8,4 6,4 - - 35 19 55 30 S 997,8 11 0,0
26.01.2020 04:00:00 8,3 5,9 - - 41 22 57 31 S 998,7 18 0,0
26.01.2020 03:00:00 8,2 5,5 - - 41 22 61 33 SSE 999,7 19 0,0
26.01.2020 02:00:00 8,2 5,1 - - 42 23 61 33 S 1000,4 19 0,0
26.01.2020 01:00:00 7,9 5,1 - - 41 22 55 30 SSE 1001,5 14 0,0
26.01.2020 00:00:00 8,1 5,3 - - 39 21 52 28 S 1002,7 16 0,0
25.01.2020 23:00:00 8,0 5,3 - - 31 17 46 25 S 1003,8 17 0,0
25.01.2020 22:00:00 7,4 5,2 - - 28 15 - - SSE 1004,8 14 0,0
25.01.2020 21:00:00 7,8 5,3 - - 26 14 - - S 1005,7 19 0,0
25.01.2020 20:00:00 7,9 5,3 - - 28 15 46 25 S 1006,2 19 0,0
25.01.2020 19:00:00 7,9 5,7 - - 35 19 - - SSE 1006,4 18 0,0
25.01.2020 18:00:00 7,9 4,8 - - 31 17 - - S 1006,6 29 0,0
25.01.2020 17:00:00 7,6 4,7 - - 29 16 - - S 1006,9 25 0,0
25.01.2020 16:00:00 7,5 4,8 - - 28 15 - - S 1007,4 23 0,0
25.01.2020 15:00:00 7,7 4,9 - - 24 13 - - S 1008,1 29 0,0
25.01.2020 14:00:00 7,8 4,7 - - 24 13 - - SSW 1009,1 30 0,0
25.01.2020 13:00:00 7,5 5,0 - - 22 12 - - SSW 1010,2 28 0,0
25.01.2020 12:00:00 7,5 4,7 - - 21 11 - - SSW 1010,9 29 0,0
25.01.2020 11:00:00 7,3 5,0 - - 22 12 - - S 1011,6 30 0,0
25.01.2020 10:00:00 7,1 4,8 - - 29 16 - - SSW 1011,6 28 0,0
25.01.2020 09:00:00 6,2 4,4 7,5 7,7 11 6 - - SSW 1012,0 19 0,0
25.01.2020 08:00:00 6,1 4,6 - - 15 8 48 26 SSW 1012,2 24 0,0
25.01.2020 07:00:00 6,0 4,5 - - 11 6 - - WNW 1012,0 22 0,0
25.01.2020 06:00:00 6,7 5,0 - - 15 8 - - S 1012,1 18 0,0
25.01.2020 05:00:00 6,7 5,3 - - 11 6 - - S 1012,7 21 0,0
25.01.2020 04:00:00 7,0 5,5 - - 11 6 - - S 1013,1 23 0,0
25.01.2020 03:00:00 7,1 5,6 - - 9 5 - - SSE 1013,8 23 0,0
25.01.2020 02:00:00 7,0 5,5 - - 16 9 - - S 1014,4 28 0,0
25.01.2020 01:00:00 7,0 5,7 - - 13 7 - - S 1015,1 25 0,0
25.01.2020 00:00:00 7,2 5,6 - - 16 9 52 28 SSW 1016,0 25 0,0
24.01.2020 23:00:00 7,2 5,9 - - 22 12 - - SW 1016,5 15 0,0
24.01.2020 22:00:00 7,5 6,3 - - 18 10 - - SW 1016,8 18 0,0
24.01.2020 21:00:00 8,1 7,1 - - 9 5 - - S 1017,2 17 0,0
24.01.2020 20:00:00 8,0 7,1 - - 9 5 - - SE 1017,4 19 0,0
24.01.2020 19:00:00 8,3 7,5 - - 15 8 - - WSW 1017,6 11 0,0
24.01.2020 18:00:00 9,0 7,4 - - 15 8 - - WSW 1017,7 15 0,0
24.01.2020 17:00:00 8,8 7,8 - - 11 6 - - WSW 1017,7 23 0,0
24.01.2020 16:00:00 8,6 8,4 - - 13 7 - - WSW 1018,0 9 0,0
24.01.2020 15:00:00 8,5 8,5 - - 15 8 - - WSW 1018,4 10 0,0
24.01.2020 14:00:00 8,5 8,4 - - 21 11 - - W 1018,9 15 0,0
24.01.2020 13:00:00 8,4 8,4 - - 21 11 - - W 1019,7 1,5 0,0
24.01.2020 12:00:00 8,4 8,4 - - 22 12 - - W 1020,1 2,5 0,0
24.01.2020 11:00:00 8,2 8,2 - - 24 13 - - W 1020,6 6 0,0
24.01.2020 10:00:00 8,0 8,0 - - 28 15 - - W 1020,6 2,1 0,2
24.01.2020 09:00:00 7,9 7,9 7,4 7,7 22 12 - - WSW 1020,6 1,7 0,2
24.01.2020 08:00:00 7,9 7,9 - - 22 12 - - WSW 1020,4 2,9 0,0
24.01.2020 07:00:00 8,1 7,7 - - 28 15 - - W 1020,4 2,9 0,0
24.01.2020 06:00:00 8,2 7,6 - - 28 15 - - W 1020,4 15 0,0
24.01.2020 05:00:00 8,2 7,5 - - 26 14 - - WSW 1020,5 16 0,0
24.01.2020 04:00:00 8,1 7,6 - - 28 15 - - WSW 1020,8 18 0,2
24.01.2020 03:00:00 8,0 7,2 - - 28 15 - - WSW 1021,6 2,5 0,0
24.01.2020 02:00:00 8,2 7,0 - - 28 15 - - WSW 1022,0 18 0,0
24.01.2020 01:00:00 8,2 7,0 - - 29 16 - - WSW 1022,9 16 0,0
24.01.2020 00:00:00 8,1 6,7 - - 26 14 - - WSW 1023,8 18 0,0
23.01.2020 23:00:00 8,2 6,8 - - 26 14 - - WSW 1024,3 14 0,0
23.01.2020 22:00:00 8,0 6,7 - - 26 14 - - WSW 1024,9 15 0,0
23.01.2020 21:00:00 8,1 6,9 - - 24 13 - - WSW 1025,1 16 0,0
23.01.2020 20:00:00 8,1 7,1 - - 21 11 - - WSW 1025,4 15 0,0
23.01.2020 19:00:00 8,0 7,2 - - 18 10 - - WSW 1025,6 12 0,0
23.01.2020 18:00:00 8,2 7,1 - - 21 11 - - WSW 1026,1 10 0,0
23.01.2020 17:00:00 7,8 7,0 - - 24 13 - - WSW 1026,4 16 0,0
23.01.2020 16:00:00 8,4 7,1 - - 22 12 - - W 1026,8 17 0,0
23.01.2020 15:00:00 8,6 7,1 - - 21 11 - - WSW 1027,4 20 0,0
23.01.2020 14:00:00 8,5 6,7 - - 28 15 - - W 1028,2 24 0,0
23.01.2020 13:00:00 8,3 6,9 - - 22 12 - - W 1029,3 19 0,0
23.01.2020 12:00:00 8,1 6,7 - - 26 14 - - W 1030,3 20 0,2
23.01.2020 11:00:00 7,8 6,9 - - 22 12 - - W 1030,8 17 0,0
23.01.2020 10:00:00 8,0 7,2 - - 22 12 - - W 1030,8 19 0,0
23.01.2020 09:00:00 7,6 6,1 7,2 7,5 26 14 - - W 1031,2 27 0,0
23.01.2020 08:00:00 7,8 7,6 - - 24 13 - - W 1031,5 8 0,4
23.01.2020 07:00:00 8,3 7,6 - - 21 11 - - W 1031,7 16 0,0
23.01.2020 06:00:00 8,3 8,1 - - 18 10 - - W 1031,6 11 0,0
23.01.2020 05:00:00 8,4 8,4 - - 22 12 - - W 1032,2 7 0,0
23.01.2020 04:00:00 8,6 8,6 - - 16 9 - - W 1032,7 5 0,0
23.01.2020 03:00:00 8,7 8,7 - - 16 9 - - W 1034,1 6 0,0
23.01.2020 02:00:00 8,7 8,7 - - 15 8 - - WSW 1034,7 6 0,0
23.01.2020 01:00:00 8,2 8,2 - - 5 3 - - WNW 1035,0 5 0,0
23.01.2020 00:00:00 8,5 8,5 - - 2 1 - - SSW 1035,0 8 0,0
22.01.2020 23:00:00 8,5 8,5 - - 8 4 - - WSW 1035,7 7 0,0
22.01.2020 22:00:00 8,5 8,5 - - 11 6 - - W 1035,7 0,9 0,0
22.01.2020 21:00:00 8,5 8,5 - - 9 5 - - W 1036,2 2,7 0,0
22.01.2020 20:00:00 8,6 8,6 - - 11 6 - - WNW 1036,6 7 0,0
22.01.2020 19:00:00 8,8 8,8 - - 18 10 - - WNW 1036,8 0,5 0,0
22.01.2020 18:00:00 9,0 9,0 - - 18 10 - - W 1037,1 0,3 0,0
22.01.2020 17:00:00 9,0 9,0 - - 18 10 - - W 1037,0 0,3 0,0
22.01.2020 16:00:00 9,2 9,2 - - 21 11 - - W 1037,1 0,4 0,2
22.01.2020 15:00:00 9,3 9,3 - - 21 11 - - W 1037,2 3,9 0,0
22.01.2020 14:00:00 9,3 9,2 - - 21 11 - - W 1037,6 5 0,0
22.01.2020 13:00:00 9,3 9,2 - - 22 12 - - W 1038,1 4,5 0,2
22.01.2020 12:00:00 9,2 9,2 - - 16 9 - - W 1038,6 10 0,0
22.01.2020 11:00:00 8,9 8,8 - - 13 7 - - W 1038,9 5 0,2
22.01.2020 10:00:00 9,1 9,0 - - 16 9 - - W 1038,9 2,9 0,0
22.01.2020 09:00:00 9,0 8,9 7,0 7,4 21 11 - - W 1038,9 1,2 0,0
22.01.2020 08:00:00 8,8 8,7 - - 22 12 - - W 1038,4 2,2 0,0

tt = temperature
td = dewpoint
tt -20cm = temperature -20cm
tt -100cm = temperature -100cm
ff = wind speed
fx = gusts
dd = wind direction
ppp = reduced air pressure
vv = visibility
rr = precipitation

Next stations